Weather Service Report


415 
ASUS46 KPQR 191410
RWROR 

OREGON REGIONAL WEATHER ROUNDUP
NATIONAL WEATHER SERVICE PORTLAND OR
700 AM PDT SAT APR 19 2014

NOTE: "FAIR" INDICATES FEW OR NO CLOUDS BELOW 12,000 FEET WITH
NO SIGNIFICANT WEATHER AND/OR OBSTRUCTIONS TO VISIBILITY.

ORZ001>013-191500-
NORTHWEST OREGON

  
CITY           SKY/WX    TMP DP  RH WIND       PRES   REMARKS
ASTORIA        CLOUDY    52  41  66 S7        29.78R                  
NEWPORT        CLOUDY    46  39  76 S9          N/A                   
PORTLAND       MOCLDY    45  40  82 E9        29.86S                  
VANCOUVER WA   PTCLDY    47  39  74 E6        29.85S                  
SCAPPOOSE      MOCLDY    39  38  96 CALM      29.85R                  
HILLSBORO      CLOUDY    39  37  92 CALM      29.85R                  
AURORA         MOCLDY    40  39  97 CALM      29.86F                  
MCMINNVILLE    CLOUDY    41  40  96 CALM      29.86R                  
SALEM          CLOUDY    47  42  83 S12       29.85R                  
CORVALLIS      CLOUDY    43  37  81 CALM      29.88S                  
EUGENE         MOCLDY    40  39  97 S6        29.89R                  
$$

ORZ021-028-191500-
SOUTHWEST OREGON

  
CITY           SKY/WX    TMP DP  RH WIND       PRES   REMARKS
NORTH BEND     CLOUDY    46  46 100 SE8       29.90S                  
BROOKINGS      CLOUDY    45  42  89 SE8       29.99R FOG              
ROSEBURG       FOG       43  41  93 CALM      29.92R VSB 1/4          
SEXTON SUMMIT  CLEAR     40  21  46 S13       29.90R WCI  32          
MEDFORD        PTCLDY    42  38  85 CALM      29.93R                  
$$

ORZ009-041-191500-
COLUMBIA GORGE

  
CITY           SKY/WX    TMP DP  RH WIND       PRES   REMARKS
TROUTDALE      MOCLDY    44  38  79 CALM      29.86R                  
THE DALLES     MOCLDY    35  33  92 CALM      29.91S                  
$$

ORZ029>031-042>050-061>064-191500-
EASTERN OREGON

  
CITY           SKY/WX    TMP DP  RH WIND       PRES   REMARKS
REDMOND        PTCLDY    32  23  69 VRB3      29.86S                  
BEND           MOSUNNY   39  27  60 SW7       29.88R WCI  34          
KLAMATH FALLS  PTCLDY    30  26  85 CALM      29.93R FOG              
LAKEVIEW       CLEAR     25  19  80 NE7       29.99R WCI  17          
HERMISTON      CLEAR     32  31  96 S3        29.88S                  
PENDLETON      CLEAR     36  31  82 E3        29.84F                  
JOHN DAY       SUNNY     37  27  65 E8        29.91S WCI  31          
MEACHAM        CLEAR     34  27  75 CALM      29.88S                  
LA GRANDE      CLEAR     34  21  60 N7        29.93S WCI  28          
BAKER CITY     PTCLDY    27  23  85 CALM      29.95S                  
BURNS          CLEAR     29  22  75 CALM      29.95R                  
ROME             N/A     36  21  54 SE6       29.96R WCI  31          
ONTARIO        SUNNY     35  24  64 W6        29.99S WCI  30          
$$

Return to Home page


Western Regional Climate Center, wrcc@dri.edu